[[{"header":{"parameterUnit":"m.s-1","parameterCategory":1,"la1":30.2991,"la2":30.254,"lo1":-89.0895,"lo2":-89.0444,"dx":0.0017,"dy":0.0017,"nx":28,"ny":28,"refTime":"2023-01-23T03:00:00:Z","depth":0,"parameterNumber":2,"parameterNumberName":"U-component_of_WINDS"},"data":[0,0,0,0,0,0,0,0,0,0,0,0,0,0,0,0,0,0,0,0,0,0,0,0,0,0,0,0,0,0,0,0,0,0,0,0,0,0,0,0,0,0,0,0,0,0,0,0,0,0,0,0,0,0,0,0,0,0,-7.2585,-7.2586,0,-7.2703,-7.2705,-7.2706,-7.2555,-7.255,-7.2544,-7.2539,-7.2662,-7.267,-7.2679,0,0,0,0,0,0,0,0,0,0,0,0,0,-7.223,-7.2238,-7.2585,-7.2587,-7.2588,-7.2703,-7.2705,-7.2706,-7.2556,-7.2549,-7.2543,-7.2536,-7.2659,-7.2669,-7.2679,0,0,0,0,0,0,0,0,0,0,0,0,0,-7.237,-7.224,-7.2585,-7.2527,-7.2523,-7.2703,-7.2705,-7.2707,-7.2558,-7.2549,-7.2541,-7.2533,-7.2656,-7.2668,-7.2681,-7.2924,0,0,-7.2719,-7.2725,0,0,0,0,0,0,0,0,-7.2363,-7.2383,-7.2534,-7.2531,-7.2527,-7.2606,-7.2624,-7.278,-7.256,-7.2545,-7.2539,-7.2529,-7.265,-7.2663,-7.2703,-7.2929,-7.2935,-7.272,-7.2728,-7.2733,-7.2737,0,0,0,0,0,0,0,-7.2353,-7.2378,-7.2632,-7.2536,-7.2532,-7.2495,-7.2506,-7.2653,-7.2642,-7.2545,-7.2534,-7.255,-7.2647,-7.2691,-7.2705,-7.2937,-7.272,-7.2731,-7.2739,-7.2744,-7.3367,-7.3376,0,0,0,0,0,0,-7.235,-7.237,-7.2628,-7.2635,-7.2423,-7.2508,-7.252,-7.2589,-7.264,-7.264,-7.2557,-7.2543,-7.2674,-7.269,-7.2709,-7.2996,-7.2733,-7.2745,-7.2752,-7.3358,-7.3369,-7.3379,0,0,0,0,0,0,-7.2343,-7.2374,-7.2623,-7.25,-7.2529,-7.2523,-7.2602,-7.2596,-7.264,-7.2649,-7.2647,-7.2605,-7.2668,-7.2691,-7.2871,-7.2998,-7.2751,-7.2762,-7.3348,-7.3362,-7.3374,-7.3573,0,0,0,0,0,0,-7.2333,-7.2373,-7.2465,-7.2503,-7.2536,-7.2784,-7.2609,-7.2604,-7.2662,-7.2644,-7.2693,-7.2694,-7.2663,-7.2853,-7.2884,-7.3011,-7.2772,-7.3336,-7.3354,-7.337,-7.3555,-7.3592,-7.3623,0,0,0,0,0,-7.2321,-7.2517,-7.247,-7.2502,-7.2651,-7.2792,-7.281,-7.2771,-7.2673,-7.2765,-7.2771,-7.2692,-7.2979,-7.2873,-7.2906,-7.3039,-7.3328,-7.3349,-7.3368,-7.354,-7.3584,-7.3622,0,0,0,0,0,0,-7.2495,-7.2521,-7.247,-7.2683,-7.2736,-7.2766,-7.2882,-7.282,-7.2902,-7.2882,-7.283,-7.2843,-7.3035,-7.3054,-7.2936,-7.3276,-7.3137,-7.3165,-7.3256,-7.3299,-7.3332,-7.3323,-7.2783,0,0,0,0,0,-7.2558,-7.2669,-7.2686,-7.2873,-7.2902,-7.2888,-7.2948,-7.2913,-7.2966,-7.2987,-7.3006,-7.3061,-7.3163,-7.3232,-7.3327,-7.3557,-7.3565,-7.3665,-7.3699,-7.3727,-7.3751,-7.3874,-7.3918,-7.3445,-7.3445,-7.3445,0,0,-7.2689,-7.2717,-7.2791,-7.2909,-7.2945,-7.3062,-7.2908,-7.3038,-7.3124,-7.3007,-7.3178,-7.3194,-7.3252,-7.3458,-7.355,-7.3481,-7.3884,-7.3752,-7.3774,-7.3784,-7.3899,-7.3944,-7.3984,-7.3459,-7.3456,-7.3454,0,0,-7.2988,-7.3021,-7.318,-7.322,-7.3277,-7.3266,-7.3305,-7.3344,-7.335,-7.352,-7.3434,-7.3536,-7.3714,-7.3758,-7.3804,-7.412,-7.405,-7.4152,-7.4329,-7.4449,-7.4487,-7.4519,-7.4632,-7.4673,-7.4177,-7.4177,-7.4178,0,-7.3145,-7.3317,-7.327,-7.3406,-7.346,-7.3359,-7.3519,-7.356,-7.3647,-7.3687,-7.3607,-7.3828,-7.3859,-7.4074,-7.4151,-7.4192,-7.4234,-7.4146,-7.4485,-7.4517,-7.4547,-7.4654,-7.4696,-7.4189,-7.4188,-7.4187,-7.4185,0,-7.3506,-7.3627,-7.3749,-7.3833,-7.3901,-7.4049,-7.4024,-7.4099,-7.4058,-7.4055,-7.423,-7.4264,-7.4364,-7.4412,-7.4374,-7.4622,-7.4577,-7.4493,-7.4352,-7.4605,-7.4704,-7.4745,-7.4206,-7.4202,-7.4199,-7.4196,0,0,-7.3919,-7.3974,-7.402,-7.4057,-7.4112,-7.4205,-7.4348,-7.4444,-7.4509,-7.4572,-7.4691,-7.4843,-7.4765,-7.4817,-7.4783,-7.4888,-7.5135,-7.479,-7.4791,-7.4853,-7.541,-7.5473,-7.5521,-7.5089,-7.5097,-7.5103,-7.5405,0,-7.4218,-7.4465,-7.4426,-7.4665,-7.4776,-7.4681,-7.4805,-7.4853,-7.4854,-7.4949,-7.495,-7.5058,-7.4947,-7.4978,-7.5078,-7.5084,-7.5246,-7.5062,-7.5199,-7.5205,-7.5187,-7.5573,-7.564,-7.5924,-7.5443,-7.545,-7.5455,0,-7.46,-7.4675,-7.4925,-7.4962,-7.5007,-7.512,-7.5205,-7.5296,-7.5348,-7.5342,-7.54,-7.5346,-7.5489,-7.5346,-7.5543,-7.5418,-7.5472,-7.5483,-7.5493,-7.5504,-7.5345,-7.5594,-7.6013,-7.6056,-7.5515,-7.551,-7.5506,0,-7.4875,-7.504,-7.521,-7.5244,-7.5292,-7.5374,-7.5397,-7.5441,-7.5501,-7.5576,-7.5614,-7.5705,-7.5755,-7.5826,-7.5798,-7.5697,-7.6001,-7.5855,-7.5999,-7.6,-7.6067,-7.6064,-7.6501,-7.6103,-7.6102,-7.6102,-7.6101,0,-7.5213,-7.537,-7.5334,-7.5439,-7.5611,-7.5565,-7.5737,-7.575,-7.5789,-7.5895,-7.5819,-7.592,-7.5876,-7.5975,-7.5954,-7.6119,-7.6143,-7.6141,-7.6134,-7.6148,-7.6149,-7.6183,-7.6162,-7.6113,-7.611,-7.6108,-7.6106,0,-7.555,-7.5532,-7.5712,-7.5742,-7.5753,-7.5879,-7.5905,-7.6003,-7.5998,-7.6133,-7.6162,-7.6154,-7.6266,-7.6245,-7.6368,-7.6354,-7.6561,-7.653,-7.6544,-7.6536,-7.6681,-7.6668,-7.7155,-7.7217,-7.678,-7.6784,-7.6788,0,-7.5767,-7.5884,-7.5927,-7.5992,-7.6022,-7.6127,-7.6188,-7.6147,-7.6214,-7.6282,-7.6372,-7.6476,-7.6558,-7.674,-7.6746,-7.684,-7.681,-7.6974,-7.6823,-7.6834,-7.6812,-7.6805,-7.6816,-7.7004,-7.7009,-7.7013,-7.7017,0,-7.6153,-7.6138,-7.6228,-7.6316,-7.639,-7.6458,-7.6517,-7.6575,-7.6539,-7.6618,-7.673,-7.6794,-7.6919,-7.7024,-7.7111,-7.7135,-7.7071,-7.7064,-7.7102,-7.7118,-7.7121,-7.7121,-7.6625,-7.7053,-7.7049,-7.7047,-7.7045,-7.7043,-7.6436,-7.6536,-7.6581,-7.6684,-7.6724,-7.6782,-7.6875,-7.6882,-7.6975,-7.7073,-7.7043,-7.7171,-7.722,-7.733,-7.7364,-7.7464,-7.7403,-7.7458,-7.7472,-7.7487,-7.7504,-7.7105,-7.748,-7.7479,-7.7478,-7.7477,-7.7476,0,-7.6818,-7.6842,-7.6937,-7.7022,-7.7103,-7.7035,-7.7097,-7.7169,-7.7283,-7.7333,-7.7414,-7.7543,-7.7644,-7.7658,-7.7753,-7.7831,-7.7804,-7.7857,-7.7851,-7.7857,-7.7553,-7.7511,-7.7877,-7.7877,-7.7877,-7.7877,-7.7877,-7.7877,-7.7026,-7.7191,-7.7182,-7.7366,-7.7389,-7.7513,-7.7555,-7.7608,-7.7647,-7.7795,-7.7878,-7.7885,-7.7921,-7.8018,-7.8108,-7.8109,-7.8148,-7.8213,-7.8203,-7.7919,-7.7879,-7.7841,-7.78,-7.8222,-7.8222,-7.8498,-7.8501,-7.8503]},{"header":{"parameterUnit":"m.s-1","parameterCategory":1,"la1":30.2991,"la2":30.254,"lo1":-89.0895,"lo2":-89.0444,"dx":0.0017,"dy":0.0017,"nx":28,"ny":28,"refTime":"2023-01-23T03:00:00:Z","depth":0,"parameterNumber":3,"parameterNumberName":"V-component_of_WINDS"},"data":[0,0,0,0,0,0,0,0,0,0,0,0,0,0,0,0,0,0,0,0,0,0,0,0,0,0,0,0,0,0,0,0,0,0,0,0,0,0,0,0,0,0,0,0,0,0,0,0,0,0,0,0,0,0,0,0,0,0,-1.5043,-1.5042,0,-1.4988,-1.4987,-1.4987,-1.4948,-1.4948,-1.4948,-1.4947,-1.4891,-1.4889,-1.4888,0,0,0,0,0,0,0,0,0,0,0,0,0,-1.5113,-1.5112,-1.5043,-1.5042,-1.5042,-1.4988,-1.4987,-1.4986,-1.4948,-1.4948,-1.4948,-1.4947,-1.4891,-1.489,-1.4888,0,0,0,0,0,0,0,0,0,0,0,0,0,-1.5073,-1.5111,-1.5043,-1.5016,-1.5013,-1.4988,-1.4987,-1.4986,-1.4948,-1.4948,-1.4947,-1.4947,-1.4892,-1.489,-1.4888,-1.4885,0,0,-1.4882,-1.4881,0,0,0,0,0,0,0,0,-1.5075,-1.507,-1.5021,-1.5018,-1.5015,-1.4974,-1.4991,-1.4952,-1.4948,-1.4973,-1.4947,-1.4947,-1.4919,-1.4915,-1.4905,-1.4883,-1.488,-1.4882,-1.4881,-1.488,-1.488,0,0,0,0,0,0,0,-1.5078,-1.5072,-1.5021,-1.502,-1.5016,-1.5006,-1.5,-1.4983,-1.4949,-1.4971,-1.4968,-1.4962,-1.4917,-1.4907,-1.4904,-1.4879,-1.4882,-1.4881,-1.4879,-1.4879,-1.4848,-1.4849,0,0,0,0,0,0,-1.5085,-1.5075,-1.5023,-1.5019,-1.5044,-1.5005,-1.4998,-1.4988,-1.4949,-1.4943,-1.4962,-1.496,-1.4911,-1.4906,-1.4902,-1.4894,-1.488,-1.4878,-1.4877,-1.4848,-1.4848,-1.4849,0,0,0,0,0,0,-1.5087,-1.5081,-1.5025,-1.5046,-1.5038,-1.5004,-1.4993,-1.4987,-1.4977,-1.4943,-1.4936,-1.4959,-1.491,-1.4904,-1.4889,-1.4892,-1.4878,-1.4876,-1.4848,-1.4848,-1.4849,-1.488,0,0,0,0,0,0,-1.5089,-1.5082,-1.5081,-1.5047,-1.5037,-1.5014,-1.4993,-1.4986,-1.4974,-1.4971,-1.4938,-1.4932,-1.4909,-1.4892,-1.4887,-1.4889,-1.4875,-1.4847,-1.4848,-1.4849,-1.4879,-1.4882,-1.4884,0,0,0,0,0,-1.5091,-1.5093,-1.5081,-1.5075,-1.5036,-1.5015,-1.5009,-1.4984,-1.4974,-1.4973,-1.495,-1.4933,-1.4892,-1.4891,-1.4885,-1.4886,-1.4847,-1.4848,-1.4848,-1.4878,-1.4881,-1.4884,0,0,0,0,0,0,-1.5129,-1.5088,-1.5075,-1.5065,-1.5043,-1.5008,-1.5006,-1.4989,-1.4969,-1.4967,-1.4936,-1.4929,-1.4916,-1.49,-1.4899,-1.488,-1.4867,-1.4867,-1.4891,-1.4894,-1.4897,-1.4901,-1.4873,0,0,0,0,0,-1.5136,-1.5122,-1.5087,-1.5082,-1.5071,-1.504,-1.503,-1.5012,-1.4988,-1.4979,-1.4956,-1.4933,-1.4915,-1.4904,-1.4885,-1.4876,-1.4867,-1.4874,-1.4877,-1.4879,-1.4879,-1.487,-1.4872,-1.4851,-1.4851,-1.4851,0,0,-1.515,-1.5126,-1.512,-1.5088,-1.507,-1.5055,-1.5033,-1.502,-1.5008,-1.4977,-1.4961,-1.4942,-1.4915,-1.4902,-1.4895,-1.4888,-1.4882,-1.488,-1.4882,-1.4881,-1.4871,-1.4873,-1.4875,-1.4852,-1.4851,-1.4851,0,0,-1.5169,-1.515,-1.5143,-1.5124,-1.5095,-1.5074,-1.5072,-1.5039,-1.5026,-1.5009,-1.4984,-1.497,-1.494,-1.4921,-1.4907,-1.4916,-1.4898,-1.4911,-1.4925,-1.4917,-1.4918,-1.492,-1.4921,-1.4922,-1.4911,-1.4911,-1.4911,0,-1.5191,-1.5169,-1.5141,-1.5128,-1.5114,-1.5084,-1.5076,-1.5059,-1.5026,-1.5016,-1.5009,-1.4968,-1.4948,-1.4929,-1.4931,-1.4921,-1.4917,-1.4914,-1.492,-1.4921,-1.4922,-1.4923,-1.4924,-1.4912,-1.4912,-1.4912,-1.4912,0,-1.5196,-1.5181,-1.5178,-1.5146,-1.5132,-1.5121,-1.509,-1.5079,-1.5061,-1.5041,-1.5022,-1.4997,-1.4971,-1.4965,-1.4949,-1.4943,-1.4939,-1.4927,-1.4913,-1.4926,-1.4927,-1.4927,-1.4915,-1.4914,-1.4914,-1.4913,0,0,-1.5238,-1.5189,-1.5189,-1.5173,-1.5138,-1.5125,-1.5112,-1.5087,-1.5077,-1.5055,-1.5042,-1.5016,-1.5003,-1.4988,-1.4968,-1.4961,-1.4967,-1.4948,-1.4947,-1.4952,-1.4957,-1.4967,-1.4968,-1.4955,-1.4955,-1.4955,-1.4959,0,-1.5251,-1.5226,-1.52,-1.5184,-1.5168,-1.5139,-1.5127,-1.5104,-1.5084,-1.5067,-1.5044,-1.5025,-1.5011,-1.5001,-1.4992,-1.4968,-1.4968,-1.4968,-1.4942,-1.4941,-1.4949,-1.4968,-1.4979,-1.4984,-1.4959,-1.4959,-1.4959,0,-1.5263,-1.5241,-1.5224,-1.5188,-1.5181,-1.5171,-1.5144,-1.5129,-1.5101,-1.5087,-1.5068,-1.5047,-1.503,-1.5018,-1.4993,-1.4994,-1.4981,-1.4967,-1.4967,-1.4963,-1.4951,-1.4964,-1.4985,-1.4986,-1.496,-1.4959,-1.4959,0,-1.5294,-1.526,-1.5245,-1.5232,-1.5191,-1.5184,-1.5167,-1.5138,-1.5124,-1.5101,-1.5091,-1.5066,-1.5052,-1.5032,-1.5004,-1.4998,-1.4982,-1.4968,-1.4968,-1.4969,-1.4966,-1.4967,-1.4985,-1.4959,-1.4959,-1.4959,-1.4959,0,-1.531,-1.5301,-1.5258,-1.5248,-1.5236,-1.5204,-1.5192,-1.5172,-1.5147,-1.5132,-1.5105,-1.5091,-1.5055,-1.5036,-1.5014,-1.4996,-1.499,-1.4977,-1.4971,-1.4979,-1.498,-1.497,-1.4969,-1.4959,-1.4959,-1.4959,-1.4959,0,-1.5343,-1.5314,-1.5295,-1.5257,-1.5247,-1.5239,-1.5206,-1.5195,-1.5172,-1.5153,-1.5147,-1.5111,-1.5088,-1.5058,-1.5025,-1.501,-1.4994,-1.4985,-1.5003,-1.5,-1.5001,-1.5001,-1.5013,-1.5012,-1.4988,-1.4988,-1.4989,0,-1.5355,-1.5347,-1.5307,-1.5295,-1.5278,-1.5259,-1.5244,-1.5212,-1.5198,-1.5164,-1.5156,-1.5131,-1.5109,-1.5072,-1.5043,-1.5017,-1.5007,-1.5013,-1.5003,-1.5011,-1.5006,-1.5006,-1.5004,-1.5015,-1.5016,-1.5016,-1.5017,0,-1.5379,-1.5365,-1.5345,-1.5319,-1.5301,-1.5279,-1.5256,-1.5247,-1.521,-1.5195,-1.517,-1.5153,-1.5119,-1.5093,-1.5063,-1.5044,-1.5023,-1.502,-1.5018,-1.5026,-1.5036,-1.5029,-1.5009,-1.502,-1.5019,-1.5019,-1.5019,-1.5019,-1.5401,-1.5392,-1.5362,-1.5339,-1.5318,-1.5296,-1.5283,-1.5259,-1.5238,-1.5208,-1.519,-1.5165,-1.5135,-1.5092,-1.5074,-1.5053,-1.5046,-1.5044,-1.5043,-1.5043,-1.5045,-1.504,-1.5048,-1.5048,-1.5047,-1.5047,-1.5047,0,-1.5423,-1.5402,-1.5382,-1.5349,-1.5331,-1.5314,-1.5286,-1.5272,-1.5251,-1.5225,-1.5203,-1.5174,-1.5148,-1.5116,-1.5088,-1.5077,-1.5067,-1.5071,-1.5071,-1.5066,-1.5054,-1.5058,-1.5079,-1.5079,-1.5079,-1.5079,-1.5079,-1.5079,-1.5432,-1.5415,-1.5396,-1.5367,-1.5345,-1.5322,-1.5307,-1.5286,-1.5265,-1.5233,-1.5212,-1.5191,-1.5162,-1.5131,-1.5106,-1.5097,-1.5087,-1.5093,-1.5082,-1.507,-1.5068,-1.5065,-1.5068,-1.5092,-1.5092,-1.5095,-1.5095,-1.5095]}]]